| time (UTC) | temp C | wind direction | speed KPH | gust KPH | rain 1hr cm | rain 24hr cm | rain mn cm | humidity % | barometer mb |
| 20260508100621 | 3 | 163 | 0.0 | 0.0 | 0.00 | 0.10 | 0.08 | 98 | |
| 20260508100141 | 3 | 163 | 0.0 | 0.0 | 0.00 | 0.10 | 0.08 | 98 | |
| 20260508095619 | 3 | 163 | 0.0 | 0.0 | 0.00 | 0.10 | 0.08 | 98 | |
| 20260508095118 | 3 | 163 | 0.0 | 0.0 | 0.00 | 0.10 | 0.08 | 98 | |
| 20260508094617 | 3 | 163 | 0.0 | 0.0 | 0.00 | 0.10 | 0.08 | 98 | |
| 20260508094116 | 3 | 163 | 0.0 | 0.0 | 0.00 | 0.10 | 0.08 | 98 | |
| 20260508093636 | 3 | 163 | 0.0 | 0.0 | 0.00 | 0.10 | 0.08 | 98 | |
| 20260508093114 | 3 | 163 | 0.0 | 0.0 | 0.00 | 0.10 | 0.08 | 98 | |
| 20260508092613 | 3 | 163 | 0.0 | 0.0 | 0.00 | 0.10 | 0.08 | 98 | |
| 20260508092112 | 3 | 163 | 0.0 | 0.0 | 0.00 | 0.10 | 0.08 | 98 | |
| 20260508091611 | 3 | 163 | 0.0 | 0.0 | 0.00 | 0.10 | 0.08 | 97 | |
| 20260508091110 | 4 | 163 | 0.0 | 0.0 | 0.00 | 0.10 | 0.08 | 97 | |
| 20260508090608 | 4 | 163 | 0.0 | 0.0 | 0.00 | 0.10 | 0.08 | 98 | |
| 20260508090108 | 4 | 163 | 0.0 | 0.0 | 0.00 | 0.10 | 0.08 | 98 | |
| 20260508085607 | 4 | 163 | 0.0 | 0.0 | 0.00 | 0.10 | 0.08 | 98 | |
| 20260508085106 | 5 | 163 | 0.0 | 0.0 | 0.00 | 0.10 | 0.08 | 97 | |
| 20260508084626 | 5 | 163 | 0.0 | 0.0 | 0.00 | 0.10 | 0.08 | 97 | |
| 20260508084104 | 5 | 163 | 0.0 | 0.0 | 0.00 | 0.10 | 0.08 | 97 | |
| 20260508083603 | 5 | 163 | 0.0 | 0.0 | 0.00 | 0.10 | 0.08 | 97 | |
| 20260508083102 | 5 | 163 | 0.0 | 0.0 | 0.00 | 0.10 | 0.08 | 98 | |
| 20260508082601 | 5 | 239 | 0.0 | 0.0 | 0.00 | 0.10 | 0.08 | 97 | |
| 20260508082100 | 5 | 0 | 0.0 | 0.0 | 0.00 | 0.10 | 0.08 | 97 | |
| 20260508081559 | 5 | 0 | 0.0 | 0.0 | 0.00 | 0.10 | 0.08 | 97 | |
| 20260508081058 | 5 | 0 | 0.0 | 0.0 | 0.00 | 0.10 | 0.08 | 97 | |
| 20260508080557 | 5 | 0 | 0.0 | 0.0 | 0.00 | 0.10 | 0.08 | 97 | |
| 20260508080056 | 5 | 0 | 0.0 | 0.0 | 0.00 | 0.10 | 0.08 | 97 | |
| 20260508075616 | 5 | 0 | 0.0 | 0.0 | 0.00 | 0.10 | 0.08 | 97 | |
| 20260508075115 | 5 | 0 | 0.0 | 0.0 | 0.00 | 0.10 | 0.08 | 97 | |
| 20260508074553 | 5 | 0 | 0.0 | 0.0 | 0.00 | 0.10 | 0.08 | 97 | |
| 20260508074051 | 5 | 0 | 0.0 | 0.0 | 0.00 | 0.10 | 0.08 | 97 | |
| 20260508073612 | 5 | 0 | 0.0 | 0.0 | 0.00 | 0.10 | 0.08 | 97 | |
| 20260508073049 | 5 | 0 | 0.0 | 0.0 | 0.00 | 0.10 | 0.08 | 97 | |
| 20260508072549 | 5 | 0 | 0.0 | 0.0 | 0.00 | 0.10 | 0.08 | 97 | |
| 20260508072048 | 5 | 0 | 0.0 | 0.0 | 0.00 | 0.10 | 0.08 | 97 | |
| 20260508071547 | 5 | 0 | 0.0 | 0.0 | 0.00 | 0.10 | 0.08 | 97 | |
| 20260508071046 | 5 | 0 | 0.0 | 0.0 | 0.00 | 0.10 | 0.08 | 97 | |
| 20260508070545 | 5 | 0 | 0.0 | 0.0 | 0.00 | 0.10 | 0.08 | 97 | |
| 20260508070044 | 5 | 0 | 0.0 | 0.0 | 0.00 | 0.10 | 0.08 | 97 | |
| 20260508065542 | 5 | 0 | 0.0 | 0.0 | 0.00 | 0.10 | 0.08 | 97 | |
| 20260508065103 | 5 | 0 | 0.0 | 0.0 | 0.00 | 0.10 | 0.08 | 97 | |
| 20260508064541 | 5 | 2 | 0.0 | 0.0 | 0.00 | 0.10 | 0.08 | 97 | |
| 20260508064040 | 5 | 2 | 0.0 | 0.0 | 0.00 | 0.10 | 0.08 | 97 | |
| 20260508063600 | 5 | 2 | 0.0 | 0.0 | 0.00 | 0.10 | 0.08 | 97 | |
| 20260508063038 | 5 | 2 | 0.0 | 0.0 | 0.00 | 0.10 | 0.08 | 96 | |
| 20260508062537 | 5 | 2 | 0.0 | 0.0 | 0.00 | 0.10 | 0.08 | 96 | |
| 20260508062056 | 5 | 2 | 0.0 | 0.0 | 0.00 | 0.10 | 0.08 | 96 | |
| 20260508061535 | 5 | 2 | 0.0 | 0.0 | 0.00 | 0.10 | 0.08 | 96 | |
| 20260508061033 | 5 | 2 | 0.0 | 0.0 | 0.00 | 0.10 | 0.08 | 96 | |
| 20260508060533 | 5 | 2 | 0.0 | 0.0 | 0.00 | 0.10 | 0.08 | 96 | |
| 20260508060031 | 5 | 2 | 0.0 | 0.0 | 0.00 | 0.10 | 0.08 | 96 | |
| 20260508055530 | 5 | 2 | 0.0 | 0.0 | 0.00 | 0.10 | 0.08 | 96 | |
| 20260508055030 | 5 | 2 | 0.0 | 0.0 | 0.00 | 0.10 | 0.08 | 96 | |
| 20260508054529 | 5 | 2 | 0.0 | 0.0 | 0.00 | 0.10 | 0.08 | 96 | |
| 20260508054027 | 5 | 4 | 0.0 | 0.0 | 0.00 | 0.10 | 0.08 | 95 | |
| 20260508053526 | 5 | 100 | 0.0 | 0.0 | 0.00 | 0.10 | 0.08 | 95 | |
| 20260508053026 | 5 | 169 | 0.0 | 0.0 | 0.03 | 0.10 | 0.08 | 95 | |
| 20260508052525 | 5 | 169 | 0.0 | 0.0 | 0.03 | 0.10 | 0.08 | 95 | |
| 20260508052023 | 5 | 169 | 0.0 | 0.0 | 0.03 | 0.10 | 0.08 | 95 | |
| 20260508051522 | 5 | 169 | 0.0 | 0.0 | 0.03 | 0.10 | 0.08 | 94 | |
| 20260508051021 | 5 | 170 | 0.0 | 0.0 | 0.03 | 0.10 | 0.08 | 94 | |
| 20260508050541 | 5 | 179 | 0.0 | 0.0 | 0.05 | 0.10 | 0.08 | 94 | |
| 20260508050019 | 5 | 160 | 0.0 | 1.6 | 0.08 | 0.10 | 0.08 | 94 | |
| 20260508045518 | 5 | 140 | 0.0 | 0.0 | 0.10 | 0.10 | 0.08 | 93 | |
| 20260508045017 | 6 | 140 | 0.0 | 0.0 | 0.10 | 0.10 | 0.08 | 93 | |
| 20260508044516 | 6 | 140 | 0.0 | 0.0 | 0.10 | 0.10 | 0.08 | 93 | |
| 20260508044036 | 5 | 140 | 0.0 | 0.0 | 0.10 | 0.10 | 0.08 | 92 | |
| 20260508043514 | 5 | 140 | 0.0 | 0.0 | 0.10 | 0.10 | 0.08 | 92 | |
| 20260508043013 | 5 | 140 | 0.0 | 0.0 | 0.08 | 0.08 | 0.05 | 91 | |
| 20260508042512 | 6 | 143 | 0.0 | 3.2 | 0.08 | 0.08 | 0.05 | 89 | |
| 20260508042032 | 6 | 167 | 0.0 | 6.4 | 0.08 | 0.08 | 0.05 | 88 | |
| 20260508041510 | 6 | 317 | 3.2 | 12.9 | 0.08 | 0.08 | 0.05 | 86 | |
| 20260508041031 | 6 | 313 | 3.2 | 11.3 | 0.08 | 0.08 | 0.05 | 84 | |
| 20260508040508 | 6 | 340 | 8.0 | 22.5 | 0.05 | 0.05 | 0.03 | 81 | |
| 20260508040007 | 7 | 6 | 17.7 | 35.4 | 0.03 | 0.03 | 0.03 | 77 | |
| 20260508035506 | 7 | 6 | 24.1 | 41.8 | 0.00 | 0.00 | 0.00 | 73 | |
| 20260508035005 | 8 | 0 | 6.4 | 11.3 | 0.00 | 0.00 | 0.00 | 71 | |
| 20260508034504 | 8 | 354 | 3.2 | 4.8 | 0.00 | 0.00 | 0.00 | 67 | |
| 20260508034003 | 8 | 333 | 3.2 | 4.8 | 0.00 | 0.00 | 0.00 | 64 | |
| 20260508033502 | 8 | 221 | 0.0 | 0.0 | 0.00 | 0.00 | 0.00 | 62 | |
| 20260508033001 | 8 | 221 | 0.0 | 0.0 | 0.00 | 0.00 | 0.00 | 62 | |
| 20260508032500 | 8 | 221 | 0.0 | 0.0 | 0.00 | 0.00 | 0.00 | 60 | |
| 20260508032020 | 8 | 221 | 0.0 | 0.0 | 0.00 | 0.00 | 0.00 | 59 | |
| 20260508031458 | 8 | 221 | 0.0 | 0.0 | 0.00 | 0.00 | 0.00 | 58 | |
| 20260508030957 | 8 | 221 | 0.0 | 0.0 | 0.00 | 0.00 | 0.00 | 58 | |
| 20260508030456 | 9 | 221 | 0.0 | 0.0 | 0.00 | 0.00 | 0.00 | 57 | |
| 20260508030026 | 9 | 209 | 3.2 | 9.7 | 0.00 | 0.00 | 0.00 | 56 | |
| 20260508025955 | 9 | 209 | 3.2 | 9.7 | 0.00 | 0.00 | 0.00 | 56 | |
| 20260508025454 | 9 | 230 | 1.6 | 6.4 | 0.00 | 0.00 | 0.00 | 55 | |
| 20260508024954 | 9 | 340 | 1.6 | 8.0 | 0.00 | 0.00 | 0.00 | 54 | |
| 20260508024452 | 9 | 340 | 3.2 | 11.3 | 0.00 | 0.00 | 0.00 | 54 | |
| 20260508023951 | 9 | 359 | 9.7 | 17.7 | 0.00 | 0.00 | 0.00 | 56 | |
| 20260508023450 | 9 | 326 | 8.0 | 19.3 | 0.00 | 0.00 | 0.00 | 54 | |
| 20260508022949 | 9 | 301 | 1.6 | 9.7 | 0.00 | 0.00 | 0.00 | 53 | |
| 20260508022448 | 9 | 256 | 3.2 | 9.7 | 0.00 | 0.00 | 0.00 | 54 | |
| 20260508021947 | 9 | 285 | 3.2 | 12.9 | 0.00 | 0.00 | 0.00 | 55 | |
| 20260508021446 | 9 | 349 | 1.6 | 8.0 | 0.00 | 0.00 | 0.00 | 56 | |
| 20260508020945 | 9 | 358 | 8.0 | 16.1 | 0.00 | 0.00 | 0.00 | 56 | |
| 20260508020505 | 9 | 346 | 8.0 | 24.1 | 0.00 | 0.00 | 0.00 | 54 | |
| 20260508015943 | 9 | 355 | 1.6 | 8.0 | 0.00 | 0.00 | 0.00 | 56 | |
| 20260508015442 | 9 | 344 | 1.6 | 6.4 | 0.00 | 0.00 | 0.00 | 55 | |
| 20260508014941 | 9 | 329 | 0.0 | 3.2 | 0.00 | 0.00 | 0.00 | 57 | |
| 20260508014440 | 9 | 297 | 0.0 | 4.8 | 0.00 | 0.00 | 0.00 | 56 | |
| 20260508013939 | 9 | 280 | 0.0 | 0.0 | 0.00 | 0.00 | 0.00 | 55 | |
| 20260508013438 | 9 | 281 | 0.0 | 6.4 | 0.00 | 0.00 | 0.00 | 54 | |
| 20260508012937 | 9 | 273 | 0.0 | 3.2 | 0.00 | 0.00 | 0.00 | 54 | |
| 20260508012436 | 9 | 272 | 1.6 | 9.7 | 0.00 | 0.00 | 0.00 | 54 | |
| 20260508011935 | 9 | 263 | 0.0 | 4.8 | 0.00 | 0.00 | 0.00 | 54 | |
| 20260508011434 | 9 | 277 | 0.0 | 3.2 | 0.00 | 0.00 | 0.00 | 55 | |
| 20260508010933 | 9 | 285 | 0.0 | 8.0 | 0.00 | 0.00 | 0.00 | 54 | |
| 20260508010453 | 9 | 253 | 1.6 | 8.0 | 0.00 | 0.00 | 0.00 | 53 | |
| 20260508005931 | 9 | 263 | 1.6 | 8.0 | 0.00 | 0.00 | 0.00 | 54 | |
| 20260508005429 | 9 | 279 | 6.4 | 19.3 | 0.00 | 0.00 | 0.00 | 54 | |
| 20260508004929 | 9 | 285 | 8.0 | 20.9 | 0.00 | 0.00 | 0.00 | 54 | |
| 20260508004449 | 10 | 301 | 12.9 | 27.4 | 0.00 | 0.00 | 0.00 | 52 | |
| 20260508003927 | 10 | 281 | 12.9 | 37.0 | 0.00 | 0.00 | 0.00 | 46 | |
| 20260508003426 | 10 | 311 | 11.3 | 25.7 | 0.00 | 0.00 | 0.00 | 46 | |
| 20260508002925 | 10 | 320 | 8.0 | 19.3 | 0.00 | 0.00 | 0.00 | 48 | |
| 20260508002424 | 10 | 346 | 9.7 | 30.6 | 0.00 | 0.00 | 0.00 | 47 | |
| 20260508001944 | 11 | 350 | 4.8 | 12.9 | 0.00 | 0.00 | 0.00 | 47 | |
| 20260508001422 | 11 | 357 | 8.0 | 19.3 | 0.00 | 0.00 | 0.00 | 46 | |
| 20260508000920 | 11 | 340 | 11.3 | 27.4 | 0.00 | 0.00 | 0.00 | 45 | |
| 20260508000420 | 11 | 344 | 9.7 | 20.9 | 0.00 | 0.00 | 0.00 | 46 | |
| 20260507235918 | 11 | 309 | 14.5 | 35.4 | 0.00 | 0.00 | 0.00 | 45 | |
| 20260507235418 | 11 | 328 | 14.5 | 38.6 | 0.00 | 0.00 | 0.00 | 42 | |
| 20260507234917 | 11 | 308 | 20.9 | 40.2 | 0.00 | 0.00 | 0.00 | 43 | |
| 20260507234416 | 11 | 318 | 14.5 | 35.4 | 0.00 | 0.00 | 0.00 | 43 | |
| 20260507233935 | 11 | 327 | 12.9 | 35.4 | 0.00 | 0.00 | 0.00 | 43 | |
| 20260507233435 | 11 | 303 | 16.1 | 38.6 | 0.00 | 0.00 | 0.00 | 42 | |
| 20260507232912 | 11 | 314 | 19.3 | 41.8 | 0.00 | 0.00 | 0.00 | 43 | |
| 20260507232433 | 11 | 309 | 14.5 | 38.6 | 0.00 | 0.00 | 0.00 | 42 | |
| 20260507231911 | 11 | 305 | 12.9 | 27.4 | 0.00 | 0.00 | 0.00 | 42 | |
| 20260507231410 | 11 | 307 | 14.5 | 33.8 | 0.00 | 0.00 | 0.00 | 41 | |
| 20260507230909 | 11 | 311 | 20.9 | 43.5 | 0.00 | 0.00 | 0.00 | 42 | |
| 20260507230407 | 12 | 314 | 20.9 | 35.4 | 0.00 | 0.00 | 0.00 | 40 | |
| 20260507225907 | 12 | 315 | 24.1 | 48.3 | 0.00 | 0.00 | 0.00 | 39 | |
| 20260507225405 | 13 | 334 | 22.5 | 41.8 | 0.00 | 0.00 | 0.00 | 38 | |
| 20260507224904 | 13 | 319 | 17.7 | 45.1 | 0.00 | 0.00 | 0.00 | 38 | |
| 20260507224404 | 13 | 307 | 20.9 | 35.4 | 0.00 | 0.00 | 0.00 | 39 | |
| 20260507223902 | 13 | 313 | 17.7 | 32.2 | 0.00 | 0.00 | 0.00 | 41 | |
| 20260507223402 | 13 | 346 | 14.5 | 30.6 | 0.00 | 0.00 | 0.00 | 40 | |
| 20260507222901 | 14 | 324 | 19.3 | 38.6 | 0.00 | 0.00 | 0.00 | 38 | |
| 20260507222359 | 13 | 313 | 27.4 | 59.5 | 0.00 | 0.00 | 0.00 | 38 | |
| 20260507221858 | 12 | 317 | 24.1 | 57.9 | 0.00 | 0.00 | 0.00 | 42 | |
| 20260507221419 | 12 | 325 | 12.9 | 40.2 | 0.00 | 0.00 | 0.00 | 41 | |
| 20260507220918 | 12 | 309 | 25.7 | 51.5 | 0.00 | 0.00 | 0.00 | 40 | |
| 20260507220355 | 13 | 331 | 27.4 | 57.9 | 0.00 | 0.00 | 0.00 | 40 | |
| 20260507215915 | 14 | 338 | 22.5 | 45.1 | 0.00 | 0.00 | 0.00 | 38 | |
| 20260507215353 | 13 | 322 | 32.2 | 56.3 | 0.00 | 0.00 | 0.00 | 40 | |
| 20260507214852 | 13 | 311 | 27.4 | 53.1 | 0.00 | 0.00 | 0.00 | 38 | |
| 20260507214351 | 13 | 306 | 27.4 | 56.3 | 0.00 | 0.00 | 0.00 | 37 | |
| 20260507213911 | 13 | 307 | 19.3 | 43.5 | 0.00 | 0.00 | 0.00 | 37 | |
| 20260507213349 | 13 | 305 | 16.1 | 37.0 | 0.00 | 0.00 | 0.00 | 38 | |
| 20260507212848 | 12 | 311 | 20.9 | 43.5 | 0.00 | 0.00 | 0.00 | 39 | |
| 20260507212347 | 12 | 313 | 29.0 | 51.5 | 0.00 | 0.00 | 0.00 | 39 | |
| 20260507211847 | 13 | 346 | 20.9 | 43.5 | 0.00 | 0.00 | 0.00 | 40 | |
| 20260507211345 | 13 | 318 | 24.1 | 46.7 | 0.00 | 0.00 | 0.00 | 39 | |
| 20260507210844 | 12 | 309 | 24.1 | 45.1 | 0.00 | 0.00 | 0.00 | 39 | |
| 20260507210343 | 12 | 311 | 24.1 | 48.3 | 0.00 | 0.00 | 0.00 | 38 | |
| 20260507205842 | 13 | 310 | 19.3 | 40.2 | 0.00 | 0.00 | 0.00 | 39 | |
| 20260507205342 | 13 | 326 | 20.9 | 49.9 | 0.00 | 0.00 | 0.00 | 40 | |
| 20260507204840 | 13 | 318 | 22.5 | 49.9 | 0.00 | 0.00 | 0.00 | 39 | |
| 20260507204339 | 13 | 324 | 19.3 | 51.5 | 0.00 | 0.00 | 0.00 | 40 | |
| 20260507203839 | 12 | 341 | 24.1 | 45.1 | 0.00 | 0.00 | 0.00 | 41 | |
| 20260507203337 | 12 | 307 | 22.5 | 46.7 | 0.00 | 0.00 | 0.00 | 40 | |
| 20260507202836 | 12 | 341 | 20.9 | 45.1 | 0.00 | 0.00 | 0.00 | 42 | |
| 20260507202335 | 12 | 320 | 19.3 | 46.7 | 0.00 | 0.00 | 0.00 | 40 | |
| 20260507201834 | 12 | 319 | 19.3 | 38.6 | 0.00 | 0.00 | 0.00 | 41 | |
| 20260507201333 | 12 | 349 | 22.5 | 51.5 | 0.00 | 0.00 | 0.00 | 41 | |
| 20260507200832 | 12 | 323 | 17.7 | 43.5 | 0.00 | 0.00 | 0.00 | 39 | |
| 20260507200331 | 12 | 312 | 20.9 | 41.8 | 0.00 | 0.00 | 0.00 | 41 | |
| 20260507195830 | 12 | 313 | 22.5 | 51.5 | 0.00 | 0.00 | 0.00 | 40 | |
| 20260507195329 | 13 | 318 | 24.1 | 53.1 | 0.00 | 0.00 | 0.00 | 39 | |
| 20260507194849 | 13 | 345 | 24.1 | 49.9 | 0.00 | 0.00 | 0.00 | 40 | |
| 20260507194327 | 12 | 339 | 25.7 | 56.3 | 0.00 | 0.00 | 0.00 | 40 | |
| 20260507193847 | 13 | 344 | 22.5 | 43.5 | 0.00 | 0.00 | 0.00 | 39 | |
| 20260507193325 | 12 | 352 | 24.1 | 53.1 | 0.00 | 0.00 | 0.00 | 39 | |
| 20260507192824 | 13 | 328 | 20.9 | 38.6 | 0.00 | 0.00 | 0.00 | 38 | |
| 20260507192323 | 13 | 319 | 25.7 | 46.7 | 0.00 | 0.00 | 0.00 | 37 | |
| 20260507191822 | 13 | 315 | 27.4 | 57.9 | 0.00 | 0.00 | 0.00 | 36 | |
| 20260507191321 | 13 | 300 | 25.7 | 57.9 | 0.00 | 0.00 | 0.00 | 37 | |
| 20260507190820 | 13 | 330 | 25.7 | 56.3 | 0.00 | 0.00 | 0.00 | 39 | |
| 20260507190320 | 13 | 326 | 19.3 | 38.6 | 0.00 | 0.00 | 0.00 | 40 | |
| 20260507185818 | 13 | 342 | 25.7 | 51.5 | 0.00 | 0.00 | 0.00 | 40 | |
| 20260507185317 | 12 | 330 | 24.1 | 43.5 | 0.00 | 0.00 | 0.00 | 41 | |
| 20260507184816 | 12 | 318 | 20.9 | 40.2 | 0.00 | 0.00 | 0.00 | 41 | |
| 20260507184315 | 12 | 350 | 19.3 | 35.4 | 0.00 | 0.00 | 0.00 | 42 | |
| 20260507183814 | 12 | 313 | 14.5 | 40.2 | 0.00 | 0.00 | 0.00 | 41 | |
| 20260507183313 | 12 | 310 | 17.7 | 35.4 | 0.00 | 0.00 | 0.00 | 41 | |
| 20260507182812 | 12 | 309 | 17.7 | 35.4 | 0.00 | 0.00 | 0.00 | 42 | |
| 20260507182311 | 12 | 349 | 22.5 | 49.9 | 0.00 | 0.00 | 0.00 | 42 | |
| 20260507181831 | 12 | 355 | 27.4 | 46.7 | 0.00 | 0.00 | 0.00 | 42 | |
| 20260507181309 | 12 | 354 | 17.7 | 41.8 | 0.00 | 0.00 | 0.00 | 40 | |
| 20260507180809 | 13 | 326 | 20.9 | 57.9 | 0.00 | 0.00 | 0.00 | 41 | |
| 20260507180307 | 13 | 310 | 16.1 | 37.0 | 0.00 | 0.00 | 0.00 | 40 | |
| 20260507175806 | 13 | 296 | 24.1 | 40.2 | 0.00 | 0.00 | 0.00 | 39 | |
| 20260507175307 | 13 | 307 | 20.9 | 46.7 | 0.00 | 0.00 | 0.00 | 39 | |
| 20260507174804 | 12 | 299 | 12.9 | 24.1 | 0.00 | 0.00 | 0.00 | 44 | |
| 20260507174303 | 12 | 343 | 20.9 | 41.8 | 0.00 | 0.00 | 0.00 | 43 | |
| 20260507173802 | 12 | 347 | 17.7 | 46.7 | 0.00 | 0.00 | 0.00 | 46 | |
| 20260507173301 | 11 | 313 | 17.7 | 48.3 | 0.00 | 0.00 | 0.00 | 44 | |
| 20260507172800 | 11 | 304 | 19.3 | 45.1 | 0.00 | 0.00 | 0.00 | 43 | |
| 20260507172259 | 12 | 303 | 16.1 | 30.6 | 0.00 | 0.00 | 0.00 | 44 | |
| 20260507171819 | 12 | 343 | 20.9 | 43.5 | 0.00 | 0.00 | 0.00 | 42 | |
| 20260507171257 | 13 | 350 | 32.2 | 51.5 | 0.00 | 0.00 | 0.00 | 40 | |
| 20260507170756 | 12 | 352 | 19.3 | 30.6 | 0.00 | 0.00 | 0.00 | 44 | |
| 20260507170255 | 12 | 333 | 14.5 | 35.4 | 0.00 | 0.00 | 0.00 | 42 | |
| 20260507165754 | 12 | 318 | 25.7 | 49.9 | 0.00 | 0.00 | 0.00 | 39 | |
| 20260507165253 | 13 | 311 | 19.3 | 33.8 | 0.00 | 0.00 | 0.00 | 41 | |
| 20260507164752 | 13 | 303 | 29.0 | 56.3 | 0.00 | 0.00 | 0.00 | 40 | |
| 20260507164251 | 12 | 291 | 14.5 | 45.1 | 0.00 | 0.00 | 0.00 | 43 | |
| 20260507163750 | 13 | 331 | 17.7 | 41.8 | 0.00 | 0.00 | 0.00 | 42 | |
| 20260507163310 | 13 | 327 | 19.3 | 38.6 | 0.00 | 0.00 | 0.00 | 43 | |
| 20260507162748 | 12 | 309 | 19.3 | 37.0 | 0.00 | 0.00 | 0.00 | 43 | |
| 20260507162247 | 11 | 305 | 19.3 | 37.0 | 0.00 | 0.00 | 0.00 | 46 | |
| 20260507161746 | 12 | 326 | 19.3 | 41.8 | 0.00 | 0.00 | 0.00 | 44 | |
| 20260507161245 | 12 | 308 | 22.5 | 46.7 | 0.00 | 0.00 | 0.00 | 43 | |
| 20260507160744 | 13 | 312 | 20.9 | 51.5 | 0.00 | 0.00 | 0.00 | 41 | |
| 20260507160243 | 13 | 311 | 16.1 | 35.4 | 0.00 | 0.00 | 0.00 | 44 | |
| 20260507155743 | 12 | 313 | 19.3 | 40.2 | 0.00 | 0.00 | 0.00 | 44 | |
| 20260507155241 | 11 | 299 | 17.7 | 46.7 | 0.00 | 0.00 | 0.00 | 46 | |
| 20260507154740 | 12 | 312 | 22.5 | 38.6 | 0.00 | 0.00 | 0.00 | 44 | |
| 20260507154239 | 13 | 323 | 19.3 | 40.2 | 0.00 | 0.00 | 0.00 | 44 | |
| 20260507153738 | 12 | 344 | 19.3 | 41.8 | 0.00 | 0.00 | 0.00 | 47 | |
| 20260507153237 | 12 | 355 | 17.7 | 40.2 | 0.00 | 0.00 | 0.00 | 47 | |
| 20260507152757 | 12 | 316 | 14.5 | 32.2 | 0.00 | 0.00 | 0.00 | 44 | |
| 20260507152234 | 11 | 314 | 17.7 | 40.2 | 0.00 | 0.00 | 0.00 | 45 | |
| 20260507151734 | 11 | 315 | 12.9 | 33.8 | 0.00 | 0.00 | 0.00 | 46 | |
| 20260507151233 | 11 | 322 | 24.1 | 43.5 | 0.00 | 0.00 | 0.00 | 44 | |
| 20260507150731 | 12 | 316 | 17.7 | 33.8 | 0.00 | 0.00 | 0.00 | 44 | |
| 20260507150231 | 12 | 286 | 12.9 | 30.6 | 0.00 | 0.00 | 0.00 | 45 | |
| 20260507145730 | 11 | 302 | 17.7 | 27.4 | 0.00 | 0.00 | 0.00 | 45 | |
| 20260507145250 | 12 | 253 | 17.7 | 41.8 | 0.00 | 0.00 | 0.00 | 43 | |
| 20260507144748 | 12 | 284 | 20.9 | 45.1 | 0.00 | 0.00 | 0.00 | 42 | |
| 20260507144227 | 12 | 267 | 14.5 | 33.8 | 0.00 | 0.00 | 0.00 | 44 | |
| 20260507143746 | 12 | 244 | 16.1 | 40.2 | 0.00 | 0.00 | 0.00 | 45 | |
| 20260507143225 | 12 | 272 | 11.3 | 33.8 | 0.00 | 0.00 | 0.00 | 45 | |
| 20260507142724 | 12 | 254 | 12.9 | 35.4 | 0.00 | 0.00 | 0.00 | 47 | |
| 20260507142223 | 12 | 240 | 14.5 | 38.6 | 0.00 | 0.00 | 0.00 | 46 | |
| 20260507141722 | 12 | 257 | 9.7 | 27.4 | 0.00 | 0.00 | 0.00 | 47 | |
| 20260507141221 | 11 | 272 | 9.7 | 17.7 | 0.00 | 0.00 | 0.00 | 48 | |
| 20260507140720 | 11 | 272 | 6.4 | 19.3 | 0.00 | 0.00 | 0.00 | 47 | |
| 20260507140218 | 11 | 332 | 11.3 | 24.1 | 0.00 | 0.00 | 0.00 | 48 | |
| 20260507135718 | 11 | 304 | 9.7 | 24.1 | 0.00 | 0.00 | 0.00 | 47 | |
| 20260507135216 | 11 | 324 | 9.7 | 19.3 | 0.00 | 0.00 | 0.00 | 49 | |
| 20260507134737 | 11 | 337 | 6.4 | 12.9 | 0.00 | 0.00 | 0.00 | 48 | |
| 20260507134215 | 10 | 315 | 11.3 | 20.9 | 0.00 | 0.00 | 0.00 | 48 | |
| 20260507133713 | 10 | 334 | 6.4 | 16.1 | 0.00 | 0.00 | 0.00 | 50 | |
| 20260507133213 | 10 | 327 | 8.0 | 14.5 | 0.00 | 0.00 | 0.00 | 49 | |
| 20260507132711 | 10 | 346 | 9.7 | 17.7 | 0.00 | 0.00 | 0.00 | 51 | |
| 20260507132211 | 10 | 0 | 9.7 | 19.3 | 0.00 | 0.00 | 0.00 | 52 | |
| 20260507131710 | 10 | 348 | 4.8 | 16.1 | 0.00 | 0.00 | 0.00 | 52 | |
| 20260507131208 | 10 | 344 | 6.4 | 12.9 | 0.00 | 0.00 | 0.00 | 53 | |
| 20260507130707 | 10 | 345 | 6.4 | 14.5 | 0.00 | 0.00 | 0.00 | 55 | |
| 20260507130206 | 9 | 334 | 4.8 | 11.3 | 0.00 | 0.00 | 0.00 | 55 | |
| 20260507125705 | 9 | 327 | 9.7 | 14.5 | 0.00 | 0.00 | 0.00 | 56 | |
| 20260507125205 | 9 | 345 | 6.4 | 12.9 | 0.00 | 0.00 | 0.00 | 60 | |
| 20260507124704 | 8 | 344 | 6.4 | 12.9 | 0.00 | 0.00 | 0.00 | 60 | |
| 20260507124223 | 8 | 335 | 6.4 | 14.5 | 0.00 | 0.00 | 0.00 | 61 | |
| 20260507123701 | 8 | 321 | 9.7 | 19.3 | 0.00 | 0.00 | 0.00 | 61 | |
| 20260507123200 | 8 | 318 | 9.7 | 17.7 | 0.00 | 0.00 | 0.00 | 63 | |
| 20260507122720 | 8 | 340 | 9.7 | 20.9 | 0.00 | 0.00 | 0.00 | 64 | |
| 20260507122159 | 7 | 344 | 6.4 | 19.3 | 0.00 | 0.00 | 0.00 | 65 | |
| 20260507121718 | 7 | 325 | 8.0 | 14.5 | 0.00 | 0.00 | 0.00 | 66 | |
| 20260507121157 | 7 | 337 | 6.4 | 16.1 | 0.00 | 0.00 | 0.00 | 67 | |
| 20260507120716 | 7 | 322 | 6.4 | 16.1 | 0.00 | 0.00 | 0.00 | 67 | |
| 20260507120215 | 6 | 312 | 11.3 | 22.5 | 0.00 | 0.00 | 0.00 | 69 | |
| 20260507115653 | 6 | 333 | 9.7 | 19.3 | 0.00 | 0.00 | 0.00 | 72 | |
| 20260507115152 | 6 | 323 | 8.0 | 17.7 | 0.00 | 0.00 | 0.00 | 75 | |
| 20260507114651 | 5 | 330 | 4.8 | 11.3 | 0.00 | 0.00 | 0.00 | 79 | |
| 20260507114150 | 5 | 351 | 0.0 | 3.2 | 0.00 | 0.00 | 0.00 | 81 | |
| 20260507113649 | 5 | 12 | 1.6 | 4.8 | 0.00 | 0.00 | 0.00 | 82 | |
| 20260507113149 | 4 | 15 | 0.0 | 1.6 | 0.00 | 0.00 | 0.00 | 82 | |
| 20260507112708 | 4 | 17 | 0.0 | 0.0 | 0.00 | 0.00 | 0.00 | 83 | |
| 20260507112146 | 3 | 18 | 0.0 | 0.0 | 0.00 | 0.00 | 0.00 | 83 | |
| 20260507111645 | 3 | 18 | 0.0 | 0.0 | 0.00 | 0.00 | 0.00 | 84 | |
| 20260507111206 | 3 | 18 | 0.0 | 0.0 | 0.00 | 0.00 | 0.00 | 84 | |
| 20260507110704 | 2 | 18 | 0.0 | 0.0 | 0.00 | 0.00 | 0.00 | 84 | |
| 20260507110142 | 2 | 18 | 0.0 | 0.0 | 0.00 | 0.00 | 0.00 | 84 | |
| 20260507105641 | 2 | 18 | 0.0 | 0.0 | 0.00 | 0.00 | 0.00 | 84 | |
| 20260507105140 | 2 | 18 | 0.0 | 0.0 | 0.00 | 0.00 | 0.00 | 84 | |
| 20260507104639 | 2 | 18 | 0.0 | 0.0 | 0.00 | 0.00 | 0.00 | 83 | |
| 20260507104138 | 2 | 18 | 0.0 | 0.0 | 0.00 | 0.00 | 0.00 | 83 | |
| 20260507103637 | 2 | 18 | 0.0 | 0.0 | 0.00 | 0.00 | 0.00 | 82 | |
| 20260507103136 | 2 | 18 | 0.0 | 0.0 | 0.00 | 0.00 | 0.00 | 82 | |
| 20260507102635 | 2 | 18 | 0.0 | 0.0 | 0.00 | 0.00 | 0.00 | 82 | |
| 20260507102155 | 2 | 18 | 0.0 | 0.0 | 0.00 | 0.00 | 0.00 | 82 | |
| 20260507101633 | 2 | 18 | 0.0 | 0.0 | 0.00 | 0.00 | 0.00 | 82 | |
| 20260507101132 | 2 | 18 | 0.0 | 0.0 | 0.00 | 0.00 | 0.00 | 82 |